Simultaneous Nadir Overpasses (SNOs) Predictions

Prediction of SNOs between FY3D and NOAA-19 Satellite Orbit:

Table of predicted SNOs for the next 14.0 days since TLE Epoch: 8/7/2021
Index Date (FY3D) Time (FY3D) Lat,Lon (FY3D) SZA (FY3D ) Date (NOAA-19) Time (NOAA-19) Lat,Lon (NOAA-19) SZA (NOAA-19 ) Distance(km) Time Diff (sec)
1 08/13/2021 15:06:38 -78.33, 110.11 115.09 08/13/2021 15:05:26 -78.30, 110.03 115.08 3.37 72
2 08/13/2021 15:57:22 78.31, -82.48 64.90 08/13/2021 15:56:20 78.34, -82.46 64.95 3.03 62
3 08/13/2021 16:48:07 -78.33, 84.72 115.06 08/13/2021 16:47:25 -78.34, 84.83 115.04 3.02 42
4 08/13/2021 17:38:51 78.31,-107.87 64.93 08/13/2021 17:38:20 78.35,-107.89 64.97 3.80 31
5 08/13/2021 18:29:36 -78.33, 59.33 115.04 08/13/2021 18:29:25 -78.35, 59.39 115.02 2.88 11
6 08/13/2021 19:20:21 78.35,-133.48 65.01 08/13/2021 19:20:20 78.36,-133.33 65.00 3.39 1
7 08/13/2021 20:11:05 -78.33, 33.95 115.01 08/13/2021 20:11:25 -78.36, 33.95 114.99 3.34 20
8 08/13/2021 21:01:50 78.36,-158.87 65.04 08/13/2021 21:02:20 78.37,-158.76 65.02 2.50 30
9 08/13/2021 21:52:35 -78.38, 8.34 114.93 08/13/2021 21:53:25 -78.37, 8.52 114.97 3.96 50
10 08/13/2021 22:43:19 78.36, 175.75 65.06 08/13/2021 22:44:20 78.38, 175.80 65.05 2.16 61
11 08/13/2021 23:34:13 -78.72, -19.12 114.42 08/13/2021 23:35:17 -78.66, -15.01 114.85 89.80 64



Historial Predications of SNOs between FY3D and NOAA-19
